sim
Sign-in with your pilot id or email,
or register
Callsign
Passwort

Schedule Details

Flight Number: OEO7806
Departure: Paris Charles de Gaulle Airport (LFPG) at 19:35
Arrival: Mumbai Chhatrapati Shivaji International Airport (VABB) at 04:05

Weather Information
Getting current METAR information for LFPG 152230Z 18007KT 9999 BKN008 09/07 Q1006 NOSIG
Getting current METAR information for VABB 152230Z 36004KT 2100 HZ NSC 24/20 Q1011 NOSIG

Schedule Frequency

Route Map